TimeCST,TemperatureF,Dew PointF,Humidity,Sea Level PressureIn,VisibilityMPH,Wind Direction,Wind SpeedMPH,Gust SpeedMPH,PrecipitationIn,Events,Conditions,WindDirDegrees,DateUTC
12:00 AM,68.0,66.2,94,29.94,6.2,NE,3.5,-,N/A,,Scattered Clouds,40,2011-10-29 06:00:00
1:00 AM,66.2,64.4,94,29.91,6.2,ENE,2.3,-,N/A,,Scattered Clouds,70,2011-10-29 07:00:00
2:00 AM,66.2,64.4,94,29.90,6.2,North,2.3,-,N/A,,Scattered Clouds,10,2011-10-29 08:00:00
3:00 AM,66.2,64.4,94,29.91,6.2,NNE,2.3,-,N/A,,Scattered Clouds,20,2011-10-29 09:00:00
4:00 AM,66.2,64.4,94,29.91,6.2,ENE,3.5,-,N/A,,Scattered Clouds,70,2011-10-29 10:00:00
5:00 AM,66.2,64.4,94,29.93,6.2,East,3.5,-,N/A,,Mostly Cloudy,90,2011-10-29 11:00:00
6:00 AM,67,64,88,29.81,12,East,3.5,,,,Partly Cloudy,80,2011-10-29 12:00:00
6:00 AM,68.0,64.4,88,29.95,-9999.0,East,3.5,-,N/A,,Clear,80,2011-10-29 12:00:00
7:00 AM,69.8,64.4,83,29.97,-9999.0,ESE,3.5,-,N/A,,Clear,120,2011-10-29 13:00:00
8:00 AM,71.6,66.2,83,29.98,-9999.0,ENE,2.3,-,N/A,,Clear,60,2011-10-29 14:00:00
9:00 AM,75,66,67,29.86,12,ESE,2.3,,,,Partly Cloudy,120,2011-10-29 15:00:00
9:00 AM,75.2,66.2,73,29.99,-9999.0,ESE,2.3,-,N/A,,Clear,120,2011-10-29 15:00:00
10:00 AM,73.4,66.2,78,29.98,-9999.0,SE,3.5,-,N/A,,Clear,130,2011-10-29 16:00:00
11:00 AM,73.4,66.2,78,29.95,-9999.0,East,6.9,-,N/A,,Clear,100,2011-10-29 17:00:00
12:00 PM,74,64,64,29.83,12,ESE,6.9,,,Rain,Light Drizzle,110,2011-10-29 18:00:00
12:00 PM,73.4,64.4,73,29.93,6.2,ESE,6.9,-,N/A,,Light Drizzle,110,2011-10-29 18:00:00
1:00 PM,77.0,66.2,69,29.90,6.2,East,5.8,-,N/A,,Mostly Cloudy,100,2011-10-29 19:00:00
2:00 PM,78.8,64.4,61,29.86,6.2,NNW,3.5,-,N/A,,Scattered Clouds,340,2011-10-29 20:00:00
3:00 PM,76,69,73,29.74,12,West,8.1,,,,Overcast,260,2011-10-29 21:00:00
3:00 PM,75.2,69.8,83,29.85,6.2,West,8.1,-,N/A,,Mostly Cloudy,260,2011-10-29 21:00:00
4:00 PM,71.6,69.8,94,29.86,6.2,SW,6.9,-,N/A,,Mostly Cloudy,230,2011-10-29 22:00:00
4:40 PM,69.8,69.8,100,29.88,2.5,WSW,6.9,-,N/A,Rain,Light Rain,240,2011-10-29 22:40:00
5:00 PM,69.8,68.0,94,29.90,2.5,SW,4.6,-,N/A,Rain,Light Rain,230,2011-10-29 23:00:00
6:00 PM,70,68,93,29.82,5,Calm,Calm,,,Rain,Light Drizzle,,2011-10-30 00:00:00
6:00 PM,69.8,68.0,94,29.92,5.0,Calm,Calm,-,N/A,Fog,Light Drizzle,0,2011-10-30 00:00:00
7:00 PM,69.8,68.0,94,29.93,6.2,West,3.5,-,N/A,Fog,Mostly Cloudy,280,2011-10-30 01:00:00
8:00 PM,69.8,68.0,94,29.96,5.0,WSW,6.9,-,N/A,Fog,Fog,250,2011-10-30 02:00:00
9:00 PM,70,68,91,29.81,2,West,3.5,,,,Overcast,270,2011-10-30 03:00:00
9:00 PM,69.8,68.0,94,29.98,1.9,West,3.5,-,N/A,,Mostly Cloudy,270,2011-10-30 03:00:00
10:00 PM,-9999,-9999,N/A,29.99,1.9,WSW,4.6,-,N/A,,Mostly Cloudy,250,2011-10-30 04:00:00
11:00 PM,68.0,68.0,100,29.97,1.9,Calm,Calm,-,N/A,,Mostly Cloudy,0,2011-10-30 05:00:00